Location: Hannover
(52.3723°N, 9.7339°E)
Time: 02:53:24
(UTC+02:00)

ISS - Pass Details

Date: 30 March 2019
Orbit: 408 x 410 km, 51.6° (Epoch: 24 April)

Event Time Altitude Azimuth Distance (km) Brightness Sun altitude
Rises 20:49:52 0° 277° (W) 2,340 1.2 -17.8°
Reaches altitude 10° 20:51:58 10° 275° (W) 1,477 -0.1 -18.0°
Maximum altitude 20:55:15 65° 193° (SSW) 453 -3.8 -18.4°
Enters shadow 20:55:27 63° 168° (SSE) 461 -3.8 -18.5°
